Regional Weather Roundup
Issued by NWS

Home | Current Version | Previous Version | Text Only | Print | Product List | Glossary On
Versions: 1 2 3 4 5 6 7 8 9 10 11 12 13 14 15 16 17 18 19 20 21 22 23 24 25 26 27 28 29 30 31 32 33 34 35 36 37 38 39 40 41 42 43 44 45 46 47 48 49 50
000
ASUS42 KTBW 042317
RWRFL
FLORIDA REGIONAL WEATHER ROUNDUP
NATIONAL WEATHER SERVICE TAMPA BAY RUSKIN FL
700 PM EDT MON MAY 04 2015

NOTE: "FAIR" INDICATES FEW OR NO CLOUDS BELOW 12,000 FEET WITH NO
SIGNIFICANT WEATHER AND/OR OBSTRUCTIONS TO VISIBILITY.


FLZ001>010-012>015-112-114-115-050000-
PANHANDLE FLORIDA

CITY           SKY/WX    TMP DP  RH WIND       PRES   REMARKS
PENSACOLA      SUNNY     76  62  62 S15       30.18S
PENSACOLA NAS  MOSUNNY   76  63  64 SE12      30.18S
MILTON NAS     MOSUNNY   77  60  55 S10       30.19
CRESTVIEW      MOSUNNY   79  62  56 S9        30.21R
DUKE FIELD     MOSUNNY   77  59  52 S13       30.20R
VALPARAISO     MOSUNNY   78  57  49 S12       30.19S
MARY ESTHER    SUNNY     77  58  52 SE9       30.18S
PANAMA CITY    FAIR      78  60  53 S8        30.19R
TYNDALL AFB    SUNNY     78  61  55 S14       30.18R
APALACHICOLA   SUNNY     80  56  43 S5        30.18S

STATION/POSITION SKY/WX   TEMP    WIND        PRES    WAVE   SWELL
                          AIR SEA DIR/SP/G            HT/PER HT/PER
                          (F)     (DEG/KT/KT) (MB)    (FT/S) (FT/S)
30.1N   87.6W              75 75  140/ 12/ 16 1021.1F   5/ 7   3/ 7
29.2N   88.2W              76 75  120/ 19/ 23 1021.9R   6/ 6   2/ 9
28.8N   86.0W              74 75   90/ 10/ 12 1022.4S   5/ 8   3/ 8
PANAMA CITY BEAC           74 77  170/ 15/ 16 1021.9S
CAPE SAN BLAS    NOT AVBL
TOWER C                    74     360/  2/  2 1022.1R
28.5N   84.5W              75 75   20/  8/ 10 1021.7S   4/ 6   3/ 6

$$
FLZ011-016>038-118-127-128-134-139-239-050000-
NORTH FLORIDA

CITY           SKY/WX    TMP DP  RH WIND       PRES   REMARKS
MARIANNA       MOSUNNY   82  48  30 S6        30.18S
TALLAHASSEE    PTSUNNY   84  52  33 NE7       30.17S
PERRY          MOSUNNY   80  57  46 E13G22    30.19S
CROSS CITY       N/A     80  55  42 E8G18     30.18S
LAKE CITY      FAIR      77  54  44 E10G16    30.21R
GAINESVILLE    SUNNY     76  54  46 E14       30.21R
MAYPORT NAS    MOSUNNY   74  62  66 NE14      30.23F
JACKSONVILLE   MOSUNNY   74  57  55 E13       30.23S
JAX NAS        PTSUNNY   79  58  48 E15       30.23S
JAX CRAIG      MOSUNNY   76  59  55 E10G20    30.23F
JAX CECIL      MOSUNNY   75  55  50 E12       30.23S
FERNANDINA BEA FAIR      79  63  57 E13       30.23F
ST AUGUSTINE   MOSUNNY   75  63  66 E10       30.24S

STATION/POSITION SKY/WX   TEMP    WIND        PRES    WAVE   SWELL
                          AIR SEA DIR/SP/G            HT/PER HT/PER
                          (F)     (DEG/KT/KT) (MB)    (FT/S) (FT/S)
SHELL POINT                78     200/  5/  5   N/A
KEATON BEACH               79      90/ 10/ 14 1022.0S
CEDAR KEY                  78      60/ 15/ 18 1022.1F
FERNANDINA                 74 74   60/ 10/ 13 1023.5F
30.7N   81.3W                 73                N/A     3/ 5   2/12
MAYPORT                    73 74   40/ 14/ 15 1024.1F
31.4N   80.9W              72 71   90/  8/ 10 1024.7F   3/ 5   3/ 5
ST AUGUSTINE               72 72   90/  9/ 10 1024.4F

$$
FLZ040-043>046-052-053-057-058-063-144-050000-
INTERIOR CENTRAL FLORIDA

CITY           SKY/WX    TMP DP  RH WIND       PRES   REMARKS
OCALA          MOSUNNY   77  55  47 E13G20    30.20R
THE VILLAGES     N/A     77  61  57 NE9       30.10S
LEESBURG       MOSUNNY   78  55  44 E14G22    30.20S
SANFORD        MOSUNNY   76  56  49 NE14      30.20S
ORLANDO EXEC   MOSUNNY   77  56  48 NE15      30.19R
ORLANDO INTL   PTSUNNY   77  57  50 NE15      30.19R
KISSIMMEE      MOSUNNY   77  55  47 E16       30.19R
WINTER HAVEN   PTSUNNY   80  57  45 E16G22    30.18S
LAKELAND       MOSUNNY   79  54  41 E17G25    30.16
BARTOW         FAIR      77  57  50 E13       30.17S
OKEECHOBEE     CLOUDY    73  61  64 E9G20     30.15F

$$
FLZ041-047-054-059-064-141-147-050000-
EAST CENTRAL FLORIDA

CITY           SKY/WX    TMP DP  RH WIND       PRES   REMARKS
ORMOND BEACH   MOSUNNY   73  57  56 E12       30.21F
DAYTONA BEACH  PTSUNNY   75  57  53 NE14      30.21F
DELAND           N/A     75  57  53 E10G17    30.22F
JFK SPACE CTR  PTSUNNY   76  60  58 E8G17     30.18S
CAPE CANAVERAL PTSUNNY   75  62  62 E14G20    30.18R
PATRICK AFB    CLOUDY    76  64  65 NE16      30.17S
MELBOURNE      CLOUDY    77  59  53 E14       30.17S
VERO BEACH     CLOUDY    73  64  73 E15       30.16F
FT PIERCE      CLOUDY    75  65  70 NE9G20    30.15S
STUART         PTSUNNY   73  61  64 E16G24    30.16

STATION/POSITION SKY/WX   TEMP    WIND        PRES    WAVE   SWELL
                          AIR SEA DIR/SP/G            HT/PER HT/PER
                          (F)     (DEG/KT/KT) (MB)    (FT/S) (FT/S)
28.5N   80.2W              74 77   60/ 16/ 19 1022.1F
28.9N   78.5W              74 78   70/ 16/ 19 1022.8S
TRIDENT PIER               77 77   40/ 11/ 15 1022.6F
28.4N   80.5W                 76                N/A     3/ 6   2/12
27.5N   80.2W                 78                N/A     6/13   3/13

$$
FLZ050-056-061-142-242-148-248-149-249-151-251-155-255-
160-260-050000-
WEST CENTRAL FLORIDA

CITY           SKY/WX    TMP DP  RH WIND       PRES   REMARKS
CRYSTAL RIVER  FAIR      79  54  41 E12G20    30.17S
INVERNESS      FAIR     N/A N/A N/A E8        30.19S
BROOKSVILLE    MOSUNNY   79  54  41 E13G22    30.17R
CLEARWATER     MOSUNNY   80  54  40 E14G28    30.14S
TAMPA INTL     PTSUNNY   81  46  29 E13G25    30.16R
TAMPA EXEC     MOSUNNY   81  50  34 E13G18    30.17R
PLANT CITY     MOSUNNY   79  55  44 E12G22    30.17F
MACDILL AFB    MOSUNNY   79  53  40 E18       30.14R
PETER O KNIGHT SUNNY     81  52  36 NE18      30.15S
ST PETERSBURG  MOSUNNY   79  58  48 E21       30.14R
SARASOTA       MOSUNNY   79  50  36 E14G21    30.11S
VENICE         FAIR      79  54  41 E15       30.13R

STATION/POSITION SKY/WX   TEMP    WIND        PRES    WAVE   SWELL
                          AIR SEA DIR/SP/G            HT/PER HT/PER
                          (F)     (DEG/KT/KT) (MB)    (FT/S) (FT/S)
CEDAR KEY                  78      60/ 15/ 18 1022.1F
28.5N   84.5W              75 75   20/  8/ 10 1021.7S   4/ 6   3/ 6
27.3N   84.2W                 77                N/A     4/ 6
CLEARWATER BEACH              76   90/  8/ 16 1020.7R
MIDDLE TAMPA BAY           79      90/ 20/ 24 1020.2S
VENICE                     79 79   80/ 10/ 12 1019.7R

$$
FLZ066-069-070-075>078-162-262-165-265-050000-
SOUTHWEST FLORIDA AND KEYS

CITY           SKY/WX    TMP DP  RH WIND       PRES   REMARKS
PUNTA GORDA    PTSUNNY   80  55  42 E13G21    30.14R
FT MYERS       PTSUNNY   79  59  50 E16G23    30.10R
SOUTHWEST INTL CLOUDY    78  60  53 E21       30.11R
NAPLES         CLOUDY    79  59  50 E10       30.10R
MARCO ISLAND   CLEAR     79  57  47 E9G16     30.10R
IMMOKALEE      CLEAR    N/A N/A N/A E12       30.12S
MARATHON       CLOUDY    78  62  57 E13       30.08S
KEY WEST NAS   CLOUDY    77  64  64 E15       30.08R
KEY WEST INTL  CLOUDY    77  65  66 E13G20    30.08R

STATION/POSITION SKY/WX   TEMP    WIND        PRES    WAVE   SWELL
                          AIR SEA DIR/SP/G            HT/PER HT/PER
                          (F)     (DEG/KT/KT) (MB)    (FT/S) (FT/S)
VENICE                     79 79   80/ 10/ 12 1019.7R
NAPLES                     80 78   90/  7/ 12 1018.9R
26.0N   85.6W              77 80   90/ 19/ 25 1018.8F   8/ 8   2/15
DRY TORTUGAS               77     100/ 23/ 25 1018.1R
NW FL BAY                  77     100/ 16/ 18 1018.6
SAND KEY                   77      90/ 22/ 25 1018.1R
SOMBRERO KEY               77      70/ 22/ 24 1018.2F
LONG KEY                   76 76   70/ 16/ 19 1019.1F
MOLASSES REEF              76 79   70/ 17/ 19 1018.6R

$$
FLZ067-068-071>074-168-172>174-050000-
SOUTHEAST FLORIDA

CITY           SKY/WX    TMP DP  RH WIND       PRES   REMARKS
W PALM BEACH   CLOUDY    77  64  64 NE16G23   30.14F
FT LAUDER-EXEC CLOUDY    78  62  57 E20       30.10F
FT LAUDERDALE  CLOUDY    77  61  57 E13       30.10S
POMPANO BEACH  CLOUDY    77  63  61 E15G23    30.11F
PEMBROKE PINES CLOUDY    77  59  53 E13       30.11F
OPA LOCKA      CLOUDY    77  60  55 E17       30.10F
MIAMI          CLOUDY    77  61  57 E12G23    30.10S
WEST KENDALL   CLOUDY    77  62  59 E15       30.10S
HOMESTEAD      CLOUDY    76  64  66 NE10      30.09S

STATION/POSITION SKY/WX   TEMP    WIND        PRES    WAVE   SWELL
                          AIR SEA DIR/SP/G            HT/PER HT/PER
                          (F)     (DEG/KT/KT) (MB)    (FT/S) (FT/S)
PORT EVERGLADES            77      70/ 13/ 19 1019.3F
VIRGINIA KEY               76 77   80/ 14/ 17 1018.9F
LAKE WORTH                 76 78   70/ 16/ 19 1020.1R
SETTLEMENT POINT           74      50/ 16/ 18 1021.2R

$$



USA.gov is the U.S. government's official web portal to all federal, state and local government web resources and services.